User: anonymous   Login
Location: Vancouver
(49.2500°N, 123.1330°W)
Time: 16:22:29
(UTC-07:00)
Language:

H-2A R/B - Orbit

View from above orbital plane
View from above orbital plane
View from above satellite
View from above satellite

Ground track
Ground track

The orbit data is extracted from the following two-line orbital elements,

1 27601U 02056E   17141.78670753 +.00000036 +00000-0 +28291-4 0  9991
2 27601 098.3778 210.4923 0072387 014.8067 093.9617 14.31779559754039
Epoch (UTC): 21 May 2017 18:52:51
Eccentricity: 0.0072387
inclination: 98.3778°
perigee height: 734 km
apogee height: 837 km
right ascension of ascending node: 210.4923°
argument of perigee: 14.8067°
revolutions per day: 14.31779559
mean anomaly at epoch: 93.9617°
orbit number at epoch: 75403

The dashed part of the orbit path shows where the satellite is in the earth's shadow,  

DLR